Regional Weather Roundup
Issued by NWS

Home | Current Version | Previous Version | Text Only | Print | Product List | Glossary Off
Versions: 1 2 3 4 5 6 7 8 9 10 11 12 13 14 15 16 17 18 19 20 21 22 23 24 25 26 27 28 29 30 31 32 33 34 35 36 37 38 39 40 41 42 43 44 45 46 47 48 49 50

110
ASUS43 KOAX 260710
RWRNE

WEATHER ROUNDUP FOR NEBRASKA
NATIONAL WEATHER SERVICE OMAHA NE
200 AM CDT THU MAY 26 2016

NOTES: SATELLITE DATA IS BEING USED TO AUGMENT CLOUD COVER ABOVE
       12000 FEET.
       "FAIR" INDICATES FEW OR NO CLOUDS BELOW 12,000 FEET WITH NO
       SIGNIFICANT WEATHER AND/OR OBSTRUCTIONS TO VISIBILITY.

  * THESE STATIONS DO NOT REPORT WEATHER SUCH AS RAIN...SNOW OR FOG.

NEZ001>004-019>022-054>056-260800-
NEBRASKA PANHANDLE

CITY           SKY/WX    TMP DP  RH WIND       PRES   REMARKS
SCOTTSBLUFF    CLOUDY    47  42  83 W6        29.94F
ALLIANCE       CLOUDY    44  42  93 NW5       29.91F
CHADRON        CLEAR     45  40  82 S3        29.91F
KIMBALL        CLEAR     45  42  89 SW8       30.00R
SIDNEY         MOCLDY    47  44  90 SW8       29.96F
$$

NEZ057>060-069>072-079>082-260800-
SOUTHWEST NEBRASKA

CITY           SKY/WX    TMP DP  RH WIND       PRES   REMARKS
NORTH PLATTE   CLOUDY    52  51  97 NW5       29.90F
IMPERIAL       CLOUDY    53  49  86 NW3       29.92F
LEXINGTON      CLEAR     56  51  84 N7        29.87R
MCCOOK         CLEAR     53  48  83 W3        29.88S
OGALLALA       CLEAR     50  47  90 W5        29.94R
$$

NEZ005>010-023>029-035>040-094-260800-
NORTH CENTRAL NEBRASKA

CITY           SKY/WX    TMP DP  RH WIND       PRES   REMARKS
VALENTINE      PTCLDY    51  46  83 CALM      29.90F
AINSWORTH      CLEAR     50  47  91 S6        29.90F
BROKEN BOW     CLOUDY    54  50  86 NW3       29.91R
O`NEILL        PTCLDY    57  52  84 SW3       29.89F
ORD            MOCLDY    56  52  86 CALM      29.87F
THEDFORD       PTCLDY    53  47  78 CALM      29.91F
$$

NEZ041-046>049-061>064-073>077-083>087-260800-
SOUTH CENTRAL NEBRASKA

CITY           SKY/WX    TMP DP  RH WIND       PRES   REMARKS
GRAND ISLAND   CLOUDY    60  56  86 NE13      29.84F
AURORA         CLOUDY    60  58  91 N9        29.84F
HASTINGS       PTCLDY    60  51  72 SE6       29.82F
HEBRON         CLEAR     58  55  88 CALM      29.87F
HOLDREGE       CLEAR     59  47  64 CALM      29.84F
KEARNEY *      PTCLDY    61  50  67 N12       29.85R
YORK           CLOUDY    59  55  88 W3        29.87S
$$

NEZ011>018-030>034-042>045-260800-
NORTHEAST NEBRASKA

CITY           SKY/WX    TMP DP  RH WIND       PRES   REMARKS
NORFOLK        CLOUDY    59  55  87 NW5       29.85F
ALBION         CLOUDY    59  53  80 CALM      29.87F
BLAIR          CLOUDY    64  56  78 NW15G26   29.76F
FREMONT        CLOUDY    62  56  78 NW18      29.82F
TEKAMAH        LGT RAIN  63  57  81 N29G36    29.75F
WAYNE          LGT RAIN  60  57  89 S8        29.84F
$$

NEZ050>053-065>068-078-088>093-260800-
SOUTHEAST NEBRASKA

CITY           SKY/WX    TMP DP  RH WIND       PRES   REMARKS
LINCOLN        CLOUDY    62  58  86 W6        29.85F
OMAHA EPPLEY   CLOUDY    64  57  78 NW12      29.79F THUNDER
BEATRICE       CLEAR     62  56  82 CALM      29.88S
FALLS CITY     CLEAR     64  61  90 CALM      29.82F
NEBRASKA CITY  CLOUDY    70  70 100 SW8       29.83F THUNDER
PLATTSMOUTH    TSTM      67  62  84 W3        29.82F
$$

NEZ044-045-051>053-067-260800-
OMAHA AREA

CITY           SKY/WX    TMP DP  RH WIND       PRES   REMARKS
OMAHA EPPLEY   CLOUDY    64  57  78 NW12      29.79F THUNDER
BLAIR          CLOUDY    64  56  78 NW15G26   29.76F
FREMONT        CLOUDY    62  56  78 NW18      29.82F
MILLARD        CLOUDY    64  58  81 CALM      29.80F
OFFUTT AFB     CLOUDY    64  61  88 W5        29.77F
PLATTSMOUTH    TSTM      67  62  84 W3        29.82F
WAHOO          FAIR      66  55  65 NW25G32   29.82R
$$




USA.gov is the U.S. government's official web portal to all federal, state and local government web resources and services.